This is the latest recevied weather packets stored in our database for station/object KF7U. If no packets are shown the sender has not sent any weather packets the latest 10 day(s).
| Time | Temp. | Humidity | Pressure | Rain* | Wind** | Luminosity | Snow |
|---|---|---|---|---|---|---|---|
| 1778007756 | 22.22° C | 47% | 1010.5 hPa | 0 mm | - | 642 W/m² | - |
| 1778007455 | 21.67° C | 49% | 1010.5 hPa | 0 mm | - | 411 W/m² | - |
| 1778007154 | 22.22° C | 48% | 1010.5 hPa | 0 mm | - | 256 W/m² | - |
| 1778006855 | 22.78° C | 48% | 1010.5 hPa | 0 mm | - | 354 W/m² | - |
| 1778006554 | 22.78° C | 48% | 1010.5 hPa | 0 mm | - | 367 W/m² | - |
| 1778006255 | 23.89° C | 47% | 1010.5 hPa | 0 mm | - | 374 W/m² | - |
| 1778005955 | 23.89° C | 47% | 1010.5 hPa | 0 mm | - | - | - |
| 1778005655 | 23.33° C | 46% | 1010.5 hPa | 0 mm | - | 1179 W/m² | - |
| 1778005354 | 23.33° C | 48% | 1010.5 hPa | 0 mm | - | - | - |
| 1778005056 | 22.78° C | 53% | 1010.5 hPa | 0 mm | - | 1263 W/m² | - |
| 1778004755 | 21.67° C | 57% | 1010.8 hPa | 0 mm | - | 1211 W/m² | - |
| 1778004455 | 20.56° C | 56% | 1010.5 hPa | 0 mm | - | 874 W/m² | - |
| 1778004154 | 20° C | 62% | 1010.8 hPa | 0 mm | - | 1191 W/m² | - |
| 1778003854 | 19.44° C | 66% | 1010.8 hPa | 0 mm | - | 588 W/m² | - |
| 1778003555 | 19.44° C | 67% | 1010.8 hPa | 0 mm | - | 448 W/m² | - |
| 1778003255 | 19.44° C | 66% | 1010.8 hPa | 0 mm | - | 314 W/m² | - |
| 1778002955 | 20° C | 63% | 1010.8 hPa | 0 mm | - | 171 W/m² | - |
| 1778002655 | 20.56° C | 58% | 1010.8 hPa | 0 mm | - | 174 W/m² | - |
| 1778002354 | 21.11° C | 57% | 1010.8 hPa | 0 mm | - | 298 W/m² | - |
| 1778002055 | 21.11° C | 57% | 1010.5 hPa | 0 mm | - | 368 W/m² | - |
| 1778001756 | 21.11° C | 59% | 1010.8 hPa | 0 mm | - | 545 W/m² | - |
| 1778001455 | 20.56° C | 59% | 1010.5 hPa | 0 mm | - | 458 W/m² | - |
| 1778001155 | 20.56° C | 60% | 1010.8 hPa | 0 mm | - | 425 W/m² | - |
| 1778000855 | 20.56° C | 62% | 1010.8 hPa | 0 mm | - | 497 W/m² | - |
| 1778000554 | 20° C | 63% | 1010.8 hPa | 0 mm | - | 333 W/m² | - |
* Rain latest hour (hover to see other rain measurements)
** Current wind speed in m/s (hover to see current wind gust speed)